{"data":{"norad_id":58995,"epoch":"2026-05-25T00:51:06.241824Z","epoch_age_seconds":78771,"freshness":"FRESH","line1":"1 58995U 24035A   26145.03548891 -.00000360  00000+0  00000+0 0  9994","line2":"2 58995   0.0183 283.8066 0001522 133.0400 311.5184  1.00271450  8353","mean_motion":1.0027145,"eccentricity":0.0001522,"inclination_deg":0.0183,"raan_deg":283.8066,"arg_perigee_deg":133.04,"mean_anomaly_deg":311.5184,"bstar":0,"rev_number":835,"period_min":1436.1017019301,"perigee_km":35780.271387615,"apogee_km":35793.106360611,"semimajor_km":42164.825874113,"source":"CELESTRAK","updated_at":"2026-05-25T13:38:14.144427Z"}}